| time (UTC) | temp C | wind direction | speed KPH | gust KPH | rain 1hr cm | rain 24hr cm | rain mn cm | humidity % | barometer mb |
| 20260504050018 | 12 | 225 | 1.6 | 4.8 | 0.00 | 0.00 | 0.00 | 52 | 1007.1 |
| 20260504045018 | 12 | 248 | 3.2 | 9.7 | 0.00 | 0.00 | 0.00 | 53 | 1007.1 |
| 20260504044018 | 11 | 0.0 | 0.0 | 0.00 | 0.00 | 0.00 | 57 | 1007.1 | |
| 20260504043018 | 11 | 0.0 | 1.6 | 0.00 | 0.00 | 0.00 | 59 | 1007.2 | |
| 20260504042018 | 11 | 0.0 | 0.0 | 0.00 | 0.00 | 0.00 | 59 | 1007.2 | |
| 20260504041018 | 11 | 158 | 1.6 | 3.2 | 0.00 | 0.00 | 0.00 | 60 | 1007.3 |
| 20260504040018 | 11 | 158 | 1.6 | 4.8 | 0.00 | 0.00 | 0.00 | 61 | 1007.4 |
| 20260504035018 | 11 | 158 | 1.6 | 3.2 | 0.00 | 0.00 | 0.00 | 62 | 1007.4 |
| 20260504034018 | 11 | 158 | 1.6 | 3.2 | 0.00 | 0.00 | 0.00 | 63 | 1007.6 |
| 20260504033018 | 11 | 180 | 3.2 | 6.4 | 0.00 | 0.00 | 0.00 | 64 | 1007.5 |
| 20260504032018 | 11 | 180 | 1.6 | 4.8 | 0.00 | 0.00 | 0.00 | 64 | 1007.8 |
| 20260504031017 | 11 | 180 | 3.2 | 6.4 | 0.00 | 0.00 | 0.00 | 64 | 1007.7 |
| 20260504030018 | 11 | 180 | 3.2 | 8.0 | 0.00 | 0.00 | 0.00 | 64 | 1007.8 |
| 20260504025018 | 11 | 158 | 1.6 | 4.8 | 0.00 | 0.00 | 0.00 | 64 | 1007.8 |
| 20260504024038 | 11 | 225 | 1.6 | 4.8 | 0.00 | 0.00 | 0.00 | 63 | 1007.9 |
| 20260504023038 | 11 | 225 | 3.2 | 6.4 | 0.00 | 0.00 | 0.00 | 63 | 1008.2 |
| 20260504022017 | 11 | 248 | 6.4 | 14.5 | 0.00 | 0.00 | 0.00 | 63 | 1008.4 |
| 20260504021017 | 11 | 248 | 4.8 | 14.5 | 0.00 | 0.00 | 0.00 | 64 | 1008.5 |
| 20260504020038 | 11 | 270 | 6.4 | 16.1 | 0.00 | 0.00 | 0.00 | 64 | 1008.7 |
| 20260504015017 | 11 | 293 | 11.3 | 20.9 | 0.00 | 0.00 | 0.00 | 62 | 1009.0 |
| 20260504014017 | 12 | 315 | 14.5 | 32.2 | 0.00 | 0.00 | 0.00 | 56 | 1008.8 |
| 20260504013017 | 13 | 293 | 14.5 | 25.7 | 0.00 | 0.00 | 0.00 | 52 | 1008.5 |
| 20260504012017 | 13 | 293 | 14.5 | 29.0 | 0.00 | 0.00 | 0.00 | 49 | 1008.3 |
| 20260504011037 | 13 | 293 | 19.3 | 27.4 | 0.00 | 0.00 | 0.00 | 48 | 1008.1 |
| 20260504010017 | 13 | 293 | 19.3 | 35.4 | 0.00 | 0.00 | 0.00 | 46 | 1008.1 |
| 20260504005037 | 14 | 293 | 14.5 | 29.0 | 0.00 | 0.00 | 0.00 | 43 | 1007.9 |
| 20260504004017 | 13 | 293 | 6.4 | 14.5 | 0.00 | 0.00 | 0.00 | 42 | 1007.7 |
| 20260504003017 | 13 | 248 | 6.4 | 16.1 | 0.00 | 0.00 | 0.00 | 43 | 1007.6 |
| 20260504002017 | 13 | 225 | 3.2 | 8.0 | 0.00 | 0.00 | 0.00 | 44 | 1007.4 |
| 20260504001037 | 13 | 225 | 1.6 | 6.4 | 0.00 | 0.00 | 0.00 | 45 | 1007.2 |
| 20260504000017 | 13 | 203 | 6.4 | 9.7 | 0.00 | 0.00 | 0.00 | 45 | 1007.3 |
| 20260503235017 | 13 | 225 | 6.4 | 16.1 | 0.00 | 0.00 | 0.00 | 45 | 1007.2 |
| 20260503234017 | 13 | 315 | 6.4 | 17.7 | 0.00 | 0.00 | 0.00 | 46 | 1007.6 |
| 20260503233017 | 13 | 293 | 16.1 | 27.4 | 0.00 | 0.00 | 0.00 | 44 | 1007.8 |
| 20260503232017 | 13 | 270 | 12.9 | 30.6 | 0.00 | 0.00 | 0.00 | 44 | 1008.0 |
| 20260503231017 | 13 | 293 | 11.3 | 19.3 | 0.00 | 0.00 | 0.00 | 40 | 1007.9 |
| 20260503230019 | 13 | 293 | 11.3 | 24.1 | 0.00 | 0.00 | 0.00 | 41 | 1007.8 |
| 20260503225059 | 14 | 293 | 6.4 | 14.5 | 0.00 | 0.00 | 0.00 | 39 | 1007.7 |
| 20260503224039 | 13 | 270 | 4.8 | 9.7 | 0.00 | 0.00 | 0.00 | 41 | 1007.5 |
| 20260503223020 | 14 | 248 | 4.8 | 11.3 | 0.00 | 0.00 | 0.00 | 39 | 1007.5 |
| 20260503222019 | 14 | 270 | 4.8 | 9.7 | 0.00 | 0.00 | 0.00 | 40 | 1007.4 |
| 20260503221019 | 14 | 248 | 8.0 | 16.1 | 0.00 | 0.00 | 0.00 | 38 | 1007.5 |
| 20260503220019 | 13 | 315 | 4.8 | 14.5 | 0.00 | 0.00 | 0.00 | 39 | 1007.7 |
| 20260503215039 | 13 | 248 | 6.4 | 14.5 | 0.00 | 0.00 | 0.00 | 39 | 1007.8 |
| 20260503214019 | 13 | 270 | 6.4 | 14.5 | 0.00 | 0.00 | 0.00 | 39 | 1007.7 |
| 20260503213018 | 13 | 270 | 9.7 | 16.1 | 0.00 | 0.00 | 0.00 | 40 | 1007.8 |
| 20260503212018 | 13 | 270 | 9.7 | 17.7 | 0.00 | 0.00 | 0.00 | 39 | 1007.7 |
| 20260503211018 | 13 | 293 | 8.0 | 19.3 | 0.00 | 0.00 | 0.00 | 41 | 1007.7 |
| 20260503210018 | 13 | 248 | 6.4 | 14.5 | 0.00 | 0.00 | 0.00 | 41 | 1007.8 |
| 20260503205018 | 13 | 293 | 8.0 | 14.5 | 0.00 | 0.00 | 0.00 | 41 | 1007.9 |
| 20260503204018 | 13 | 293 | 9.7 | 17.7 | 0.00 | 0.00 | 0.00 | 42 | 1007.9 |
| 20260503203018 | 13 | 293 | 12.9 | 22.5 | 0.00 | 0.00 | 0.00 | 41 | 1008.0 |
| 20260503202038 | 13 | 293 | 11.3 | 25.7 | 0.00 | 0.00 | 0.00 | 40 | 1008.2 |
| 20260503201018 | 13 | 270 | 11.3 | 22.5 | 0.00 | 0.00 | 0.00 | 41 | 1008.4 |
| 20260503200018 | 13 | 270 | 11.3 | 22.5 | 0.00 | 0.00 | 0.00 | 41 | 1008.4 |
| 20260503195038 | 13 | 315 | 11.3 | 20.9 | 0.00 | 0.00 | 0.00 | 41 | 1008.4 |
| 20260503194018 | 13 | 248 | 12.9 | 24.1 | 0.00 | 0.00 | 0.00 | 41 | 1008.5 |
| 20260503193018 | 12 | 293 | 11.3 | 20.9 | 0.00 | 0.00 | 0.00 | 39 | 1008.5 |
| 20260503192038 | 13 | 293 | 9.7 | 19.3 | 0.00 | 0.00 | 0.00 | 39 | 1008.6 |
| 20260503191018 | 13 | 293 | 9.7 | 22.5 | 0.00 | 0.00 | 0.00 | 38 | 1008.8 |
| 20260503190018 | 13 | 248 | 11.3 | 22.5 | 0.00 | 0.00 | 0.00 | 37 | 1008.9 |
| 20260503185018 | 13 | 293 | 12.9 | 24.1 | 0.00 | 0.00 | 0.00 | 35 | 1008.9 |
| 20260503184018 | 13 | 293 | 9.7 | 20.9 | 0.00 | 0.00 | 0.00 | 36 | 1008.9 |
| 20260503183018 | 13 | 270 | 11.3 | 24.1 | 0.00 | 0.00 | 0.00 | 34 | 1009.1 |
| 20260503182018 | 13 | 270 | 9.7 | 20.9 | 0.00 | 0.00 | 0.00 | 35 | 1009.2 |
| 20260503181019 | 12 | 293 | 8.0 | 16.1 | 0.00 | 0.00 | 0.00 | 36 | 1009.4 |
| 20260503180018 | 13 | 338 | 8.0 | 19.3 | 0.00 | 0.00 | 0.00 | 34 | 1009.5 |
| 20260503175018 | 12 | 248 | 12.9 | 20.9 | 0.00 | 0.00 | 0.00 | 34 | 1009.7 |
| 20260503174018 | 12 | 225 | 12.9 | 22.5 | 0.00 | 0.00 | 0.00 | 33 | 1009.9 |
| 20260503173038 | 12 | 293 | 4.8 | 9.7 | 0.00 | 0.00 | 0.00 | 34 | 1009.7 |
| 20260503172038 | 12 | 338 | 6.4 | 16.1 | 0.00 | 0.00 | 0.00 | 33 | 1009.9 |
| 20260503171017 | 12 | 315 | 6.4 | 16.1 | 0.00 | 0.00 | 0.00 | 32 | 1010.0 |
| 20260503131039 | 7 | 293 | 6.4 | 16.1 | 0.00 | 0.00 | 0.00 | 61 | 1012.1 |
| 20260503081019 | 5 | 315 | 3.2 | 9.7 | 0.00 | 0.00 | 0.00 | 71 | 1011.4 |